Погода в Долиновке

Россия / Ставропольский край     44°36′25″N   43°22′55″E
темп.,
°C
ветер,
м/с
пор.,
м/с
влажн.,
%
обл.,
%
осадки,
мм/ч
давл.,
гПа
погр.,
м
13 апреля, вт
вт1300:00+9сз3581100 0.0 1023259
03:00+9з2282100 0.0 102378
06:00+8зсз2282100 0.0 102382
09:00+10с2277100 0.0 1023362
12:00+11ссз2277100 0.0 1022515
15:00+11зсз3375100 0.0 1021468
18:00+11зсз3677100 0.0 1021377
21:00+9сз3584100 0.0 1020197
14 апреля, ср
ср1400:00+9сз3791100 0.1 1019310
03:00+9з5791100 0.7 1018384
06:00+9зсз5888100 0.0 1018456
09:00+10зсз6979100 0.0 1017652
12:00+13сз5669100 0.1 10171006
15:00+14сз4560100 0.1 10161336
18:00+13ссз3471100 0.1 1017200
21:00+11зсз237898 0.1 101739
15 апреля, чт
чт1500:00+9з34862 0.0 101755
03:00+8з33864 0.0 101739
06:00+7з22848 0.0 101829
09:00+14зсз56610 0.0 1017780
12:00+18сз56425 0.0 10151608
15:00+19сз56355 0.0 10152015
18:00+16ссз355143 0.0 101598
21:00+12ссз225912 0.0 101723
16 апреля, пт
пт1600:00+11з22645 0.0 101615
03:00+10з226699 0.0 101610
06:00+10зюз1167100 0.0 101710
09:00+15вюв2251100 0.0 1016412
12:00+19в33415 0.0 10151310
15:00+21в4438100 0.0 10141656
18:00+18в355375 0.0 1014110
21:00+15юв2262100 0.1 101526
17 апреля, сб
сб1700:00+13с1172100 0.6 101512
03:00+12сз4785100 0.7 1017199
06:00+11ссз81290100 2.3 1019512
09:00+10ссз51085100 4.1 1021725
12:00+11сз5781100 0.1 1021740
15:00+10з3580100 0.1 1022477
18:00+10зюз3482100 0.1 1022198
21:00+9зюз2284100 0.1 102234